FW2527 Weather Reports


Display with metric or nautical units.
time (UTC)temp
F
wind
direction
speed
MPH
gust
MPH
rain 1hr
in
rain 24hr
in
rain mn
in
humidity
%
barometer
mb
20260509131004 67 0.0 0.0 0.00 0.00 0.00 55 1017.7
20260509130553 67 0.0 0.0 0.00 0.00 0.00 51 1017.7
20260509130021 66 0.0 0.0 0.00 0.00 0.00 51 1017.8
20260509125509 67 0.0 0.0 0.00 0.00 0.00 50 1017.8
20260509125058 66 0.0 0.0 0.00 0.00 0.00 52 1017.9
20260509124515 65 0.0 0.0 0.00 0.00 0.00 54 1018.0
20260509124003 63 0.0 0.0 0.00 0.00 0.00 55 1018.0
20260509123557 64 0.0 0.0 0.00 0.00 0.00 55 1018.1
20260509123014 65 0.0 0.0 0.00 0.00 0.00 57 1018.0
20260509122502 65 0.0 0.0 0.00 0.00 0.00 54 1018.1
20260509122053 65 0.0 0.0 0.00 0.00 0.00 55 1018.2
20260509121514 63 0.0 0.0 0.00 0.00 0.00 57 1018.4
20260509121102 63 0.0 0.0 0.00 0.00 0.00 58 1018.3
20260509120551 64 0.0 0.0 0.00 0.00 0.00 57 1018.4
20260509120012 63 0.0 0.0 0.00 0.00 0.00 63 1018.4
20260509115558 62 0.0 0.0 0.00 0.00 0.00 60 1018.4
20260509115047 62 0.0 0.0 0.00 0.00 0.00 60 1018.4
20260509114510 63 0.0 0.0 0.00 0.00 0.00 60 1018.5
20260509114056 63 0.0 0.0 0.00 0.00 0.00 57 1018.5
20260509113547 64 0.0 0.0 0.00 0.00 0.00 56 1018.5
20260509113004 65 0.0 0.0 0.00 0.00 0.00 54 1018.5
20260509112554 66 0.0 0.0 0.00 0.00 0.00 59 1018.6
20260509112044 65 0.0 0.0 0.00 0.00 0.00 60 1018.5
20260509111505 65 0.0 0.0 0.00 0.00 0.00 63 1018.6
20260509111057 65 0.0 0.0 0.00 0.00 0.00 61 1018.7
20260509110546 63 0.0 0.0 0.00 0.00 0.00 60 1018.7
20260509110014 63 0.0 0.0 0.00 0.00 0.00 58 1018.7
20260509105504 63 0.0 0.0 0.00 0.00 0.00 61 1018.8
20260509105055 64 0.0 0.0 0.00 0.00 0.00 61 1018.9
20260509104515 64 0.0 0.0 0.00 0.00 0.00 65 1018.9
20260509104002 63 0.0 0.0 0.00 0.00 0.00 61 1019.0
20260509103554 63 0.0 0.0 0.00 0.00 0.00 64 1018.9
20260509103023 63 0.0 0.0 0.00 0.00 0.00 63 1019.0
20260509102513 63 0.0 0.0 0.00 0.00 0.00 64 1019.1
20260509102102 62 0.0 0.0 0.00 0.00 0.00 62 1019.1
20260509101521 63 0.0 0.0 0.00 0.00 0.00 65 1019.1
20260509101012 62 0.0 0.0 0.00 0.00 0.00 62 1019.1
20260509100558 62 0.0 0.0 0.00 0.00 0.00 62 1019.1
20260509100027 62 0.0 0.0 0.00 0.00 0.00 64 1019.2
20260509095519 61 0.0 0.0 0.00 0.00 0.00 63 1019.1
20260509095003 62 0.0 0.0 0.00 0.00 0.00 63 1019.3
20260509094523 62 0.0 0.0 0.00 0.00 0.00 65 1019.3
20260509094010 62 0.0 0.0 0.00 0.00 0.00 64 1019.3
20260509093601 63 0.0 0.0 0.00 0.00 0.00 66 1019.3
20260509093039 62 0.0 0.0 0.00 0.00 0.00 69 1019.3
20260509092518 61 0.0 0.0 0.00 0.00 0.00 66 1019.3
20260509092009 61 0.0 0.0 0.00 0.00 0.00 69 1019.3
20260509091528 61 0.0 0.0 0.00 0.00 0.00 70 1019.3
20260509091016 61 0.0 0.0 0.00 0.00 0.00 70 1019.3
20260509090505 61 0.0 0.0 0.00 0.00 0.00 71 1019.2
20260509090026 61 0.0 0.0 0.00 0.00 0.00 71 1019.4
20260509085514 60 0.0 0.0 0.00 0.00 0.00 71 1019.2
20260509085002 59 0.0 0.0 0.00 0.00 0.00 71 1019.2
20260509084530 59 0.0 0.0 0.00 0.00 0.00 72 1019.3
20260509084016 59 0.0 0.0 0.00 0.00 0.00 73 1019.3
20260509083602 59 0.0 0.0 0.00 0.00 0.00 71 1019.4
20260509083018 59 0.0 0.0 0.00 0.00 0.00 72 1019.3
20260509082508 59 0.0 0.0 0.00 0.00 0.00 73 1019.4
20260509082058 59 0.0 0.0 0.00 0.00 0.00 73 1019.4
20260509081525 59 0.0 0.0 0.00 0.00 0.00 73 1019.4
20260509081014 59 0.0 0.0 0.00 0.00 0.00 74 1019.5
20260509080604 59 0.0 0.0 0.00 0.00 0.00 75 1019.4
20260509080019 58 0.0 0.0 0.00 0.00 0.00 74 1019.5
20260509075611 58 0.0 0.0 0.00 0.00 0.00 75 1019.5
20260509075043 58 0.0 0.0 0.00 0.00 0.00 75 1019.5
20260509074504 57 0.0 0.0 0.00 0.00 0.00 76 1019.5
20260509074053 57 0.0 0.0 0.00 0.00 0.00 77 1019.5
20260509073542 57 0.0 0.0 0.00 0.00 0.00 77 1019.4
20260509073012 56 0.0 0.0 0.00 0.00 0.00 78 1019.3
20260509072602 56 0.0 0.0 0.00 0.00 0.00 78 1019.4
20260509072051 56 0.0 0.0 0.00 0.00 0.00 77 1019.5
20260509071511 55 0.0 0.0 0.00 0.00 0.00 79 1019.6
20260509071101 55 0.0 0.0 0.00 0.00 0.00 79 1019.6
20260509070550 55 0.0 0.0 0.00 0.00 0.00 80 1019.8
20260509070018 54 0.0 0.0 0.00 0.00 0.00 80 1019.8
20260509065505 54 0.0 0.0 0.00 0.00 0.00 81 1019.8
20260509065056 54 0.0 0.0 0.00 0.00 0.00 82 1019.8
20260509064517 53 0.0 0.0 0.00 0.00 0.00 83 1019.8
20260509064007 53 0.0 0.0 0.00 0.00 0.00 84 1019.8
20260509063555 52 0.0 0.0 0.00 0.00 0.00 84 1019.9
20260509063026 52 0.0 0.0 0.00 0.00 0.00 85 1019.8
20260509062511 52 0.0 0.0 0.00 0.00 0.00 86 1019.9
20260509062103 52 0.0 0.0 0.00 0.00 0.00 87 1019.8
20260509061519 51 0.0 0.0 0.00 0.00 0.00 88 1019.8
20260509061006 51 0.0 0.0 0.00 0.00 0.00 89 1019.8
20260509060557 50 0.0 0.0 0.00 0.00 0.00 90 1019.8
20260509060016 50 0.0 0.0 0.00 0.00 0.00 90 1019.8
20260509055503 49 0.0 0.0 0.00 0.00 0.00 91 1019.7
20260509055058 49 0.0 0.0 0.00 0.00 0.00 91 1019.6
20260509054514 48 0.0 0.0 0.00 0.00 0.00 91 1019.6
20260509054002 48 0.0 0.0 0.00 0.00 0.00 91 1019.6
20260509053555 47 0.0 0.0 0.00 0.00 0.00 92 1019.6
20260509053014 47 0.0 0.0 0.00 0.00 0.00 92 1019.5
20260509052602 47 0.0 0.0 0.00 0.00 0.00 92 1019.5
20260509052050 46 0.0 0.0 0.00 0.00 0.00 92 1019.3
20260509051509 46 0.0 0.0 0.00 0.00 0.00 92 1019.3
20260509051103 45 0.0 0.0 0.00 0.00 0.00 92 1019.3
20260509050548 44 0.0 0.0 0.00 0.00 0.00 92 1019.3
20260509050022 43 0.0 0.0 0.00 0.00 0.00 92 1019.2
20260509045556 43 0.0 0.0 0.00 0.00 0.00 91 1019.3
20260509045043 43 0.0 0.0 0.00 0.00 0.00 91 1019.2
20260509044502 42 0.0 0.0 0.00 0.00 0.00 91 1019.2
20260509044053 42 0.0 0.0 0.00 0.00 0.00 91 1019.2
20260509043543 42 0.0 0.0 0.00 0.00 0.00 91 1019.1
20260509043103 42 0.0 0.0 0.00 0.00 0.00 91 1019.1
20260509042550 42 0.0 0.0 0.00 0.00 0.00 90 1019.2
20260509042043 42 0.0 0.0 0.00 0.00 0.00 90 1019.2
20260509041507 42 0.0 0.0 0.00 0.00 0.00 90 1019.2
20260509041057 42 0.0 0.0 0.00 0.00 0.00 90 1019.2
20260509040545 42 0.0 0.0 0.00 0.00 0.00 90 1019.2
20260509040005 42 0.0 0.0 0.00 0.00 0.00 90 1019.2
20260509035555 42 0.0 0.0 0.00 0.00 0.00 90 1019.2
20260509035043 42 0.0 0.0 0.00 0.00 0.00 90 1019.1
20260509034602 42 0.0 0.0 0.00 0.00 0.00 90 1019.1
20260509034050 41 0.0 0.0 0.00 0.00 0.00 90 1019.2
20260509033538 42 0.0 0.0 0.00 0.00 0.00 90 1019.1
20260509033006 42 0.0 0.0 0.00 0.00 0.00 90 1019.2
20260509032557 42 0.0 0.0 0.00 0.00 0.00 90 1019.2
20260509032045 42 0.0 0.0 0.00 0.00 0.00 90 1019.2
20260509031510 42 0.0 0.0 0.00 0.00 0.00 89 1019.2
20260509031055 42 0.0 0.0 0.00 0.00 0.00 89 1019.3
20260509030544 42 0.0 0.0 0.00 0.00 0.00 89 1019.5
20260509030003 42 0.0 0.0 0.00 0.00 0.00 89 1019.5
20260509025555 42 0.0 0.0 0.00 0.00 0.00 89 1019.5
20260509025041 42 0.0 0.0 0.00 0.00 0.00 89 1019.5
20260509024605 43 0.0 0.0 0.00 0.00 0.00 89 1019.5
20260509024051 43 0.0 0.0 0.00 0.00 0.00 89 1019.6
20260509023539 43 0.0 0.0 0.00 0.00 0.00 89 1019.7
20260509023103 43 0.0 0.0 0.00 0.00 0.00 89 1019.6
20260509022548 43 0.0 0.0 0.00 0.00 0.00 89 1019.6
20260509022038 43 0.0 0.0 0.00 0.00 0.00 89 1019.6
20260509021558 43 0.0 0.0 0.00 0.00 0.00 89 1019.5
20260509021049 43 0.0 0.0 0.00 0.00 0.00 89 1019.5
20260509020533 43 0.0 0.0 0.00 0.00 0.00 89 1019.6
20260509020003 43 0.0 0.0 0.00 0.00 0.00 89 1019.4
20260509015552 43 0.0 0.0 0.00 0.00 0.00 88 1019.5
20260509015043 44 0.0 0.0 0.00 0.00 0.00 88 1019.6
20260509014601 44 0.0 0.0 0.00 0.00 0.00 88 1019.6
20260509014048 44 0.0 0.0 0.00 0.00 0.00 88 1019.6
20260509013539 44 0.0 0.0 0.00 0.00 0.00 88 1019.5
20260509013109 44 0.0 0.0 0.00 0.00 0.00 88 1019.5
20260509012544 44 0.0 0.0 0.00 0.00 0.00 88 1019.5
20260509012033 44 0.0 0.0 0.00 0.00 0.00 88 1019.5
20260509011554 45 0.0 0.0 0.00 0.00 0.00 88 1019.6
20260509011041 45 0.0 0.0 0.00 0.00 0.00 88 1019.6
20260509010529 45 0.0 0.0 0.00 0.00 0.00 88 1019.6
20260509010051 45 0.0 0.0 0.00 0.00 0.00 88 1019.6
20260509005539 45 0.0 0.0 0.00 0.00 0.00 88 1019.7
20260509005027 45 0.0 0.0 0.00 0.00 0.00 87 1019.6
20260509004547 45 0.0 0.0 0.00 0.00 0.00 87 1019.7
20260509004027 45 0.0 0.0 0.00 0.00 0.00 87 1019.7
20260509003514 46 0.0 0.0 0.00 0.00 0.00 87 1019.7
20260509003036 46 0.0 0.0 0.00 0.00 0.00 87 1019.6
20260509002520 46 0.0 0.0 0.00 0.00 0.00 87 1019.7
20260509002007 46 0.0 0.0 0.00 0.00 0.00 87 1019.6
20260509001535 46 0.0 0.0 0.00 0.00 0.00 87 1019.6
20260509001024 46 0.0 0.0 0.00 0.00 0.00 87 1019.5
20260509000512 46 0.0 0.0 0.00 0.00 0.00 87 1019.6
20260509000036 46 0.0 0.0 0.00 0.00 0.00 86 1019.5
20260508235521 46 0.0 0.0 0.00 0.00 0.00 86 1019.5
20260508235013 46 0.0 0.0 0.00 0.00 0.00 86 1019.5
20260508234531 46 0.0 0.0 0.00 0.00 0.00 86 1019.5
20260508234018 46 0.0 0.0 0.00 0.00 0.00 86 1019.5
20260508233507 46 0.0 0.0 0.00 0.00 0.00 85 1019.5
20260508233036 46 0.0 0.0 0.00 0.00 0.00 85 1019.5
20260508232523 46 0.0 0.0 0.00 0.00 0.00 85 1019.5
20260508232012 47 0.0 0.0 0.00 0.00 0.00 85 1019.6
20260508231532 47 0.0 0.0 0.00 0.00 0.00 85 1019.6
20260508231021 47 0.0 0.0 0.00 0.00 0.00 84 1019.6
20260508230510 47 0.0 0.0 0.00 0.00 0.00 84 1019.8
20260508230038 47 0.0 0.0 0.00 0.00 0.00 84 1019.7
20260508225526 47 0.0 0.0 0.00 0.00 0.00 84 1019.7
20260508225014 48 0.0 0.0 0.00 0.00 0.00 83 1019.8
20260508224535 48 0.0 0.0 0.00 0.00 0.00 83 1019.7
20260508224023 48 0.0 0.0 0.00 0.00 0.00 83 1019.7
20260508223511 48 0.0 0.0 0.00 0.00 0.00 82 1019.8
20260508223035 48 0.0 0.0 0.00 0.00 0.00 82 1019.8
20260508222518 49 0.0 0.0 0.00 0.00 0.00 82 1019.8
20260508222007 49 0.0 0.0 0.00 0.00 0.00 82 1019.8
20260508221534 49 0.0 0.0 0.00 0.00 0.00 81 1019.8
20260508221016 49 0.0 0.0 0.00 0.00 0.00 81 1019.6
20260508220505 49 0.0 0.0 0.00 0.00 0.00 80 1019.5
20260508220034 50 0.0 0.0 0.00 0.00 0.00 80 1019.6
20260508215516 50 0.0 0.0 0.00 0.00 0.00 80 1019.6
20260508215001 50 0.0 0.0 0.00 0.00 0.00 79 1019.6
20260508214531 50 0.0 0.0 0.00 0.00 0.00 79 1019.6
20260508214019 50 0.0 0.0 0.00 0.00 0.00 79 1019.7
20260508213507 50 0.0 0.0 0.00 0.00 0.00 78 1019.6
20260508213043 51 0.0 0.0 0.00 0.00 0.00 78 1019.7
20260508212518 51 0.0 0.0 0.00 0.00 0.00 77 1019.7
20260508212008 51 0.0 0.0 0.00 0.00 0.00 77 1019.6
20260508211536 51 0.0 0.0 0.00 0.00 0.00 77 1019.5
20260508211024 52 0.0 0.0 0.00 0.00 0.00 76 1019.6
20260508210511 52 0.0 0.0 0.00 0.00 0.00 76 1019.4
20260508210034 52 0.0 0.0 0.00 0.00 0.00 75 1019.4
20260508205520 52 0.0 0.0 0.00 0.00 0.00 75 1019.5
20260508205009 53 0.0 0.0 0.00 0.00 0.00 75 1019.4
20260508204526 53 0.0 0.0 0.00 0.00 0.00 75 1019.4
20260508204014 53 0.0 0.0 0.00 0.00 0.00 74 1019.4
20260508203502 53 0.0 0.0 0.00 0.00 0.00 74 1019.4
20260508203022 53 0.0 0.0 0.00 0.00 0.00 74 1019.4
20260508202510 53 0.0 0.0 0.00 0.00 0.00 74 1019.4
20260508202100 53 0.0 0.0 0.00 0.00 0.00 74 1019.2
20260508201519 54 0.0 0.0 0.00 0.00 0.00 73 1019.2
20260508201006 54 0.0 0.0 0.00 0.00 0.00 73 1019.2
20260508200556 54 0.0 0.0 0.00 0.00 0.00 73 1019.2
20260508200024 54 0.0 0.0 0.00 0.00 0.00 74 1019.1
20260508195509 54 0.0 0.0 0.00 0.00 0.00 73 1019.1
20260508195058 54 0.0 0.0 0.00 0.00 0.00 73 1019.1
20260508194526 54 0.0 0.0 0.00 0.00 0.00 73 1019.1
20260508194013 55 0.0 0.0 0.00 0.00 0.00 72 1019.1
20260508193501 55 0.0 0.0 0.00 0.00 0.00 72 1019.0
20260508193021 55 0.0 0.0 0.00 0.00 0.00 72 1018.9
20260508192508 55 0.0 0.0 0.00 0.00 0.00 71 1018.8
20260508192057 55 0.0 0.0 0.00 0.00 0.00 71 1018.8
20260508191524 56 0.0 0.0 0.00 0.00 0.00 70 1018.7
20260508191004 56 0.0 0.0 0.00 0.00 0.00 70 1018.7
20260508190552 56 0.0 0.0 0.00 0.00 0.00 69 1018.7
20260508190019 57 0.0 0.0 0.00 0.00 0.00 68 1018.5
20260508185505 57 0.0 0.0 0.00 0.00 0.00 68 1018.4
20260508185053 57 0.0 0.0 0.00 0.00 0.00 67 1018.3
20260508184520 58 0.0 0.0 0.00 0.00 0.00 67 1018.3
20260508184006 58 0.0 0.0 0.00 0.00 0.00 66 1018.4
20260508183556 58 0.0 0.0 0.00 0.00 0.00 66 1018.3
20260508183014 58 0.0 0.0 0.00 0.00 0.00 66 1018.2
20260508182606 59 0.0 0.0 0.00 0.00 0.00 66 1018.3
20260508182049 59 0.0 0.0 0.00 0.00 0.00 65 1018.3
20260508181523 59 0.0 0.0 0.00 0.00 0.00 65 1018.3
20260508181100 59 0.0 0.0 0.00 0.00 0.00 64 1018.1
20260508180544 60 0.0 0.0 0.00 0.00 0.00 63 1018.1
20260508180012 60 0.0 0.0 0.00 0.00 0.00 63 1018.0
20260508175600 60 0.0 0.0 0.00 0.00 0.00 62 1018.1
20260508175047 61 0.0 0.0 0.00 0.00 0.00 62 1017.8
20260508174514 61 0.0 0.0 0.00 0.00 0.00 61 1017.9
20260508174057 61 0.0 0.0 0.00 0.00 0.00 61 1017.9
20260508173542 61 0.0 0.0 0.00 0.00 0.00 61 1017.7
20260508173102 61 0.0 0.0 0.00 0.00 0.00 61 1017.7
20260508172550 61 0.0 0.0 0.00 0.00 0.00 61 1017.7
20260508172039 61 0.0 0.0 0.00 0.00 0.00 60 1017.5
20260508171506 61 0.0 0.0 0.00 0.00 0.00 60 1017.5
20260508171056 61 0.0 0.0 0.00 0.00 0.00 60 1017.6
20260508170543 61 0.0 0.0 0.00 0.00 0.00 60 1017.5
20260508170007 61 0.0 0.0 0.00 0.00 0.00 60 1017.5
20260508165557 61 0.0 0.0 0.00 0.00 0.00 59 1017.4
20260508165045 61 0.0 0.0 0.00 0.00 0.00 59 1017.5
20260508164504 61 0.0 0.0 0.00 0.00 0.00 58 1017.5
20260508164055 61 0.0 0.0 0.00 0.00 0.00 58 1017.5
20260508163542 61 0.0 0.0 0.00 0.00 0.00 58 1017.4
20260508163011 62 0.0 0.0 0.00 0.00 0.00 57 1017.4
20260508162603 62 0.0 0.0 0.00 0.00 0.00 57 1017.4
20260508162050 61 0.0 0.0 0.00 0.00 0.00 57 1017.4
20260508161509 62 0.0 0.0 0.00 0.00 0.00 57 1017.6
20260508161059 62 0.0 0.0 0.00 0.00 0.00 57 1017.5
20260508160546 62 0.0 0.0 0.00 0.00 0.00 56 1017.5
20260508160008 62 0.0 0.0 0.00 0.00 0.00 56 1017.6
20260508155556 62 0.0 0.0 0.00 0.00 0.00 56 1017.6
20260508155044 62 0.0 0.0 0.00 0.00 0.00 56 1017.5
20260508154503 62 0.0 0.0 0.00 0.00 0.00 56 1017.5
20260508154057 62 0.0 0.0 0.00 0.00 0.00 56 1017.5
20260508153542 62 0.0 0.0 0.00 0.00 0.00 56 1017.6
20260508153001 62 0.0 0.0 0.00 0.00 0.00 54 1017.5
20260508152553 62 0.0 0.0 0.00 0.00 0.00 54 1017.6
20260508152039 63 0.0 0.0 0.00 0.00 0.00 54 1017.5
20260508151609 63 0.0 0.0 0.00 0.00 0.00 53 1017.6
20260508151051 64 0.0 0.0 0.00 0.00 0.00 52 1017.6
20260508150544 64 0.0 0.0 0.00 0.00 0.00 52 1017.5
20260508145552 64 0.0 0.0 0.00 0.00 0.00 51 1017.5
20260508145041 65 0.0 0.0 0.00 0.00 0.00 51 1017.6
20260508144502 67 0.0 0.0 0.00 0.00 0.00 54 1017.6
20260508144053 65 0.0 0.0 0.00 0.00 0.00 49 1017.6
20260508143541 64 0.0 0.0 0.00 0.00 0.00 55 1017.6
20260508143102 63 0.0 0.0 0.00 0.00 0.00 54 1017.7
20260508142550 63 0.0 0.0 0.00 0.00 0.00 54 1017.7
20260508142039 63 0.0 0.0 0.00 0.00 0.00 53 1017.7
20260508141616 63 0.0 0.0 0.00 0.00 0.00 56 1017.9
20260508141048 63 0.0 0.0 0.00 0.00 0.00 53 1017.8
20260508140541 64 0.0 0.0 0.00 0.00 0.00 56 1017.8
20260508140008 64 0.0 0.0 0.00 0.00 0.00 52 1017.9
20260508135601 66 0.0 0.0 0.00 0.00 0.00 56 1018.0
20260508135046 64 0.0 0.0 0.00 0.00 0.00 56 1018.1
20260508134503 62 0.0 0.0 0.00 0.00 0.00 56 1018.1
20260508134054 62 0.0 0.0 0.00 0.00 0.00 57 1018.1
20260508133544 61 0.0 0.0 0.00 0.00 0.00 55 1018.2
20260508133055 61 0.0 0.0 0.00 0.00 0.00 56 1018.2
20260508132543 61 0.0 0.0 0.00 0.00 0.00 57 1018.1
20260508132031 61 0.0 0.0 0.00 0.00 0.00 57 1018.1
20260508131601 61 0.0 0.0 0.00 0.00 0.00 61 1018.0
20260508131041 61 0.0 0.0 0.00 0.00 0.00 59 1018.1